Regional Weather Roundup
Issued by NWS

Home | Current Version | Previous Version | Text Only | Print | Product List | Glossary On
Versions: 1 2 3 4 5 6 7 8 9 10 11 12 13 14 15 16 17 18 19 20 21 22 23 24 25 26 27 28 29 30 31 32 33 34 35 36 37 38 39 40 41 42 43 44 45 46 47 48 49 50
000
ASUS44 KOUN 261210
RWROK

WEATHER ROUNDUP FOR OKLAHOMA
NATIONAL WEATHER SERVICE NORMAN OK
700 AM CDT TUE SEP 26 2017

NOTE: "FAIR" INDICATES FEW OR NO CLOUDS BELOW 12,000 FEET WITH NO
      SIGNIFICANT WEATHER AND/OR OBSTRUCTIONS TO VISIBILITY.

OKZ001>007-009>012-014-015-017-261300-
NORTHWEST OKLAHOMA AND THE PANHANDLE

CITY           SKY/WX    TMP DP  RH WIND       PRES   REMARKS
GAGE           CLOUDY    56  54  93 N9        30.07R
6HR MIN TEMP:  56; 6HR MAX TEMP:  62; 6HR PCP:  0.01;

GUYMON         CLOUDY    52  52 100 N12       30.12R
ENID/WOODRING  DRIZZLE   63  63 100 N10       30.00R
$$

OKZ016-021>023-033>039-044-045-261300-
SOUTHWEST OKLAHOMA

CITY           SKY/WX    TMP DP  RH WIND       PRES   REMARKS
LAWTON/REGL    RAIN      70  70 100 N3        29.96R FOG
6HR MIN TEMP:  70; 6HR MAX TEMP:  71; 6HR PCP:  0.44;

LAWTON/FT SILL HVY RAIN  69  69 100 N8        29.94R FOG
FREDERICK      TSTM      70  69  97 E8        29.92R FOG
CLINTON        LGT RAIN  62  61  96 N20       30.01R FOG
HOBART         CLOUDY    70  65  84 NE13      29.98R HAZE
ALTUS AFB      HVY RAIN  69  69 100 NE12      29.95R FOG
$$

OKZ018>020-024>031-261300-
CENTRAL OKLAHOMA

CITY           SKY/WX    TMP DP  RH WIND       PRES   REMARKS
OKLAHOMA CITY  LGT RAIN  68  67  96 N8        29.96R
6HR MIN TEMP:  68; 6HR MAX TEMP:  70; 6HR PCP:  0.27;

OKC/WILEY POST LGT RAIN  67  67 100 N12       29.97R FOG
OKC/TINKER AFB CLOUDY    68  67  97 NE6       29.96R
STILLWATER     HVY RAIN  67  66  97 NE8       29.99R FOG
GUTHRIE        LGT RAIN  68  67  96 CALM      29.97R
$$

OKZ008-013-054>072-261300-
NORTHEAST OKLAHOMA

CITY           SKY/WX    TMP DP  RH WIND       PRES   REMARKS
TULSA          CLOUDY    69  67  93 VRB5      29.96R
6HR MIN TEMP:  69; 6HR MAX TEMP:  71;

TULSA/JONES    CLOUDY    71  66  84 N7        29.96R
PONCA CITY     CLOUDY    65  62  90 N9        30.00R
BARTLESVILLE   CLOUDY    68  65  90 N7        30.00R
MUSKOGEE       CLEAR     68  66  93 S3        29.97R
$$

OKZ032-040>043-046>053-073>077-261300-
SOUTH CENTRAL/SOUTHEAST OKLAHOMA

CITY           SKY/WX    TMP DP  RH WIND       PRES   REMARKS
ARDMORE/DWNTWN CLOUDY    70  68  94 CALM      29.93R FOG
MCALESTER      CLOUDY    72  67  84 E3        29.96R
$$





USA.gov is the U.S. government's official web portal to all federal, state and local government web resources and services.